This is the latest recevied weather packets stored in our database for station/object WW3TRG. If no packets are shown the sender has not sent any weather packets the latest 10 day(s).
| Time | Temp. | Humidity | Pressure | Rain* | Wind** | Luminosity | Snow |
|---|---|---|---|---|---|---|---|
| 1788617036 | 22.78° C | 65% | 1011.6 hPa | 0 mm | - | 67 W/m² | - |
| 1788616734 | 22.78° C | 65% | 1011.7 hPa | 0 mm | - | 62 W/m² | - |
| 1788616430 | 22.78° C | 67% | 1011.7 hPa | 0 mm | - | 141 W/m² | - |
| 1788616126 | 22.78° C | 66% | 1011.8 hPa | 0 mm | - | 73 W/m² | - |
| 1788615824 | 22.78° C | 67% | 1011.5 hPa | 0 mm | - | 70 W/m² | - |
| 1788615519 | 22.78° C | 66% | 1011.8 hPa | 0 mm | - | 45 W/m² | - |
| 1788615214 | 22.78° C | 66% | 1011.7 hPa | 0 mm | - | 50 W/m² | - |
| 1788614913 | 22.78° C | 66% | 1011.6 hPa | 0 mm | - | 39 W/m² | - |
| 1788614609 | 22.78° C | 65% | 1011.6 hPa | 0 mm | - | 65 W/m² | - |
| 1788614309 | 22.78° C | 65% | 1011.6 hPa | 0 mm | - | 67 W/m² | - |
| 1788614004 | 22.78° C | 67% | 1011.6 hPa | 0 mm | - | 133 W/m² | - |
| 1788613700 | 22.78° C | 64% | 1011.5 hPa | 0 mm | - | 138 W/m² | - |
| 1788613398 | 22.78° C | 64% | 1011.5 hPa | 0 mm | - | 188 W/m² | - |
| 1788613094 | 23.89° C | 68% | 1011.5 hPa | 0 mm | - | 187 W/m² | - |
| 1788612788 | 23.89° C | 65% | 1011.4 hPa | 0 mm | - | 185 W/m² | - |
| 1788612485 | 23.33° C | 70% | 1011.8 hPa | 0 mm | - | 157 W/m² | - |
| 1788612181 | 22.22° C | 72% | 1011.6 hPa | 0 mm | - | 181 W/m² | - |
| 1788611875 | 22.22° C | 71% | 1011.8 hPa | 0 mm | - | 34 W/m² | - |
| 1788611573 | 22.22° C | 69% | 1011.6 hPa | 0 mm | - | 157 W/m² | - |
| 1788611272 | 22.78° C | 70% | 1011.8 hPa | 0 mm | - | 152 W/m² | - |
| 1788610972 | 21.67° C | 72% | 1011.6 hPa | 0 mm | - | 143 W/m² | - |
| 1788610667 | 22.22° C | 71% | 1011.8 hPa | 0 mm | - | 135 W/m² | - |
| 1788610364 | 21.67° C | 73% | 1012 hPa | 0 mm | - | 132 W/m² | - |
| 1788610062 | 22.22° C | 72% | 1011.9 hPa | 0 mm | - | 119 W/m² | - |
| 1788609757 | 21.11° C | 73% | 1011.8 hPa | 0 mm | - | 111 W/m² | - |
* Rain latest hour (hover to see other rain measurements)
** Current wind speed in m/s (hover to see current wind gust speed)